User: anonymous   Login
Location: Unspecified
(0.0000°N, 0.0000°E)
Time: 16:27:29
(UTC+00:00)
Language:

UFO 9 - Orbit

View from above orbital plane
View from above orbital plane
View from above satellite
View from above satellite

Ground track
Ground track

The orbit data is extracted from the following two-line orbital elements,

1 25501U 98058A   24105.59493794 -.00000221  00000-0  00000-0 0  9991
2 25501  10.3909  24.9146 0012847 348.3453 192.7992  0.98178452 92032
Epoch (UTC): 14 April 2024 14:16:42
Eccentricity: 0.0012847
inclination: 10.3909°
perigee height: 36328 km
apogee height: 36438 km
right ascension of ascending node: 24.9146°
argument of perigee: 348.3453°
revolutions per day: 0.98178452
mean anomaly at epoch: 192.7992°
orbit number at epoch: 9203

The dashed part of the orbit path shows where the satellite is in the earth's shadow,  

DLR